Location: ????????
(55.4000°N, 39.1167°E)
Time: 13:29:07
(UTC+00:00)

NOSS 3-2 (A) - Pass Details

Date: 19 May 2025
Orbit: 674 x 1530 km, 63.4° (Epoch: 29 May)

Event Time Altitude Azimuth Distance (km) Brightness Sun altitude
Rises 20:13:58 0° 302° (WNW) 3,606 7.3 -13.3°
Reaches altitude 10° 20:16:21 10° 306° (NW) 2,771 6.7 -13.4°
Maximum altitude 20:22:55 62° 28° (NNE) 1,293 4.4 -13.7°
Drops below altitude 10° 20:31:03 10° 108° (ESE) 3,390 6.0 -13.9°
Sets 20:34:14 0° 112° (ESE) 4,465 6.6 -14.0°
